[[{"header":{"parameterUnit":"m.s-1","parameterCategory":1,"la1":30.2991,"la2":30.254,"lo1":-89.0895,"lo2":-89.0444,"dy":0.0017,"dx":0.0017,"nx":28,"ny":28,"refTime":"2023-08-14T03:00:00:Z","depth":0,"parameterNumber":2,"parameterNumberName":"U-component_of_WINDS"},"data":[0,0,0,0,0,0,0,0,0,0,0,0,0,0,0,0,0,0,0,0,0,0,0,0,0,0,0,0,0,0,0,0,0,0,0,0,0,0,0,0,0,0,0,0,0,0,0,0,0,0,0,0,0,0,0,0,0,0,1.1775,1.1776,0,1.1928,1.193,1.1932,1.1995,1.1995,1.1994,1.1994,1.2152,1.2156,1.2161,0,0,0,0,0,0,0,0,0,0,0,0,0,1.1536,1.154,1.1775,1.1777,1.1779,1.1928,1.193,1.1932,1.1995,1.1995,1.1994,1.1994,1.215,1.2156,1.2161,0,0,0,0,0,0,0,0,0,0,0,0,0,1.1659,1.1541,1.1774,1.1828,1.1834,1.1928,1.193,1.1933,1.1995,1.1995,1.1994,1.1994,1.2149,1.2155,1.2162,1.2214,0,0,1.2182,1.2185,0,0,0,0,0,0,0,0,1.1652,1.1668,1.1818,1.1824,1.1832,1.1942,1.1904,1.2027,1.1995,1.1934,1.1994,1.1993,1.2082,1.2095,1.2125,1.2221,1.2228,1.2183,1.2187,1.219,1.2192,0,0,0,0,0,0,0,1.1644,1.1662,1.1836,1.182,1.1828,1.1844,1.1861,1.1928,1.2009,1.1939,1.1944,1.1962,1.2086,1.2118,1.2129,1.223,1.2183,1.2189,1.2193,1.2196,1.2377,1.2378,0,0,0,0,0,0,1.1626,1.1654,1.1831,1.184,1.1739,1.1849,1.1868,1.1907,1.2009,1.2024,1.1962,1.1964,1.2107,1.2121,1.2134,1.2202,1.219,1.2196,1.22,1.2376,1.2377,1.2378,0,0,0,0,0,0,1.1621,1.1641,1.1824,1.1749,1.1773,1.1854,1.1897,1.191,1.1942,1.2026,1.2041,1.1979,1.2107,1.2125,1.2193,1.2208,1.2199,1.2206,1.2375,1.2377,1.2378,1.2337,0,0,0,0,0,0,1.1614,1.1639,1.1659,1.1749,1.1777,1.1881,1.1898,1.1914,1.1954,1.1958,1.2046,1.206,1.2108,1.2183,1.22,1.2217,1.2211,1.2374,1.2376,1.2377,1.2337,1.2337,1.2336,0,0,0,0,0,1.1605,1.1642,1.166,1.1681,1.1804,1.1881,1.1898,1.1951,1.1955,1.1976,1.203,1.2057,1.2204,1.2189,1.2209,1.2229,1.2374,1.2375,1.2377,1.2338,1.2337,1.2336,0,0,0,0,0,0,1.1552,1.1655,1.1676,1.1743,1.1803,1.1892,1.192,1.1949,1.2009,1.201,1.2075,1.2094,1.2157,1.22,1.2182,1.2285,1.2291,1.2297,1.2254,1.2254,1.2253,1.2242,1.2216,0,0,0,0,0,1.1548,1.1603,1.1689,1.174,1.1769,1.1839,1.1875,1.1911,1.1976,1.2002,1.206,1.2122,1.2182,1.2221,1.2281,1.2344,1.2364,1.2367,1.2366,1.2365,1.237,1.2406,1.2409,1.2384,1.2384,1.2384,0,0,1.1541,1.1604,1.1634,1.1731,1.1782,1.1836,1.186,1.1917,1.1958,1.201,1.2079,1.2124,1.2197,1.2263,1.2295,1.2301,1.2381,1.2368,1.2366,1.2371,1.2408,1.2411,1.2413,1.2385,1.2385,1.2384,0,0,1.1556,1.1608,1.1656,1.1707,1.1783,1.183,1.1841,1.1926,1.1958,1.2028,1.2068,1.2118,1.222,1.2271,1.231,1.2344,1.2372,1.2362,1.2358,1.2393,1.2395,1.2397,1.2409,1.2413,1.2366,1.2366,1.2366,0,1.1537,1.1621,1.1677,1.1732,1.1773,1.1823,1.1873,1.1919,1.2011,1.2038,1.2043,1.2173,1.2226,1.2304,1.2312,1.2343,1.2358,1.2352,1.239,1.2393,1.2396,1.2408,1.2412,1.2364,1.2364,1.2364,1.2364,0,1.1593,1.1651,1.1681,1.1768,1.1813,1.1865,1.1929,1.1968,1.2,1.2046,1.2117,1.2182,1.2256,1.2277,1.231,1.2361,1.2362,1.2378,1.2385,1.2395,1.2408,1.2413,1.2361,1.2362,1.2362,1.2363,0,0,1.1579,1.1697,1.1707,1.1748,1.1836,1.1882,1.1936,1.2008,1.204,1.2102,1.2149,1.2234,1.2249,1.2293,1.2332,1.2363,1.2385,1.2375,1.2378,1.2374,1.2446,1.2433,1.2438,1.2404,1.2405,1.2406,1.244,0,1.1605,1.1704,1.1756,1.1833,1.1887,1.1935,1.1982,1.2041,1.2086,1.2138,1.2187,1.2247,1.2262,1.2289,1.2322,1.2375,1.24,1.2374,1.2449,1.2451,1.2428,1.2444,1.2431,1.2459,1.2445,1.2446,1.2446,0,1.1649,1.171,1.1791,1.1874,1.1899,1.194,1.201,1.206,1.2128,1.2158,1.2208,1.2246,1.2305,1.2308,1.239,1.2371,1.2405,1.2435,1.2438,1.2447,1.2449,1.2454,1.247,1.2474,1.2455,1.2454,1.2453,0,1.163,1.1733,1.1795,1.1828,1.1926,1.1953,1.1995,1.2063,1.2103,1.2165,1.2192,1.226,1.2297,1.2348,1.2404,1.2401,1.248,1.2488,1.2507,1.2506,1.2522,1.252,1.2543,1.2543,1.2543,1.2543,1.2543,0,1.1653,1.1701,1.1788,1.1826,1.1881,1.1941,1.1994,1.204,1.21,1.2148,1.2194,1.2238,1.2309,1.2362,1.2405,1.2467,1.2483,1.2509,1.252,1.2505,1.2502,1.2528,1.2528,1.2544,1.2544,1.2544,1.2544,0,1.1641,1.1701,1.1772,1.1859,1.1882,1.1918,1.1993,1.2032,1.2078,1.2139,1.2156,1.223,1.2295,1.2355,1.2441,1.2471,1.2533,1.2547,1.2509,1.2515,1.2531,1.2528,1.2572,1.2581,1.2574,1.2574,1.2574,0,1.1652,1.1691,1.1781,1.1817,1.1858,1.1914,1.1956,1.2016,1.2057,1.2138,1.2167,1.2235,1.2293,1.2394,1.2456,1.2522,1.2538,1.2549,1.2548,1.2532,1.2538,1.2535,1.254,1.2548,1.2547,1.2547,1.2547,0,1.1666,1.1694,1.1751,1.1819,1.1867,1.1924,1.1982,1.2008,1.208,1.2124,1.2191,1.2235,1.2323,1.239,1.2464,1.2507,1.2539,1.2547,1.2555,1.2539,1.2516,1.2529,1.2506,1.2545,1.2546,1.2546,1.2546,1.2546,1.1666,1.1702,1.1772,1.1834,1.1884,1.1938,1.1978,1.2031,1.2087,1.2164,1.2196,1.2263,1.2331,1.2433,1.2476,1.253,1.2537,1.2548,1.2551,1.2553,1.255,1.2507,1.2544,1.2544,1.2544,1.2544,1.2544,0,1.1682,1.1729,1.1786,1.1866,1.1915,1.1941,1.2006,1.2046,1.2105,1.2165,1.2221,1.2297,1.2363,1.2429,1.2498,1.2528,1.2545,1.2544,1.2543,1.2552,1.254,1.2526,1.253,1.253,1.253,1.253,1.253,1.253,1.1696,1.1758,1.1794,1.1882,1.1929,1.1995,1.2031,1.208,1.2128,1.2212,1.2266,1.2309,1.2372,1.2446,1.2507,1.2525,1.2548,1.2544,1.2566,1.2553,1.2553,1.2554,1.2541,1.2548,1.2548,1.2574,1.2574,1.2574]},{"header":{"parameterUnit":"m.s-1","parameterCategory":1,"la1":30.2991,"la2":30.254,"lo1":-89.0895,"lo2":-89.0444,"dy":0.0017,"dx":0.0017,"nx":28,"ny":28,"refTime":"2023-08-14T03:00:00:Z","depth":0,"parameterNumber":3,"parameterNumberName":"V-component_of_WINDS"},"data":[0,0,0,0,0,0,0,0,0,0,0,0,0,0,0,0,0,0,0,0,0,0,0,0,0,0,0,0,0,0,0,0,0,0,0,0,0,0,0,0,0,0,0,0,0,0,0,0,0,0,0,0,0,0,0,0,0,0,4.485,4.485,0,4.4917,4.4918,4.4918,4.4883,4.4881,4.4879,4.4878,4.4939,4.4942,4.4945,0,0,0,0,0,0,0,0,0,0,0,0,0,4.4682,4.4685,4.4849,4.485,4.4851,4.4917,4.4918,4.4918,4.4883,4.4881,4.4879,4.4877,4.4938,4.4941,4.4945,0,0,0,0,0,0,0,0,0,0,0,0,0,4.4752,4.4687,4.4849,4.4842,4.4842,4.4916,4.4918,4.4919,4.4884,4.4881,4.4878,4.4876,4.4936,4.4941,4.4946,4.503,0,0,4.4961,4.4963,0,0,0,0,0,0,0,0,4.4749,4.4759,4.4842,4.4842,4.4842,4.4889,4.4881,4.4956,4.4884,4.4867,4.4878,4.4874,4.4924,4.493,4.4948,4.5033,4.5035,4.4961,4.4964,4.4967,4.4968,0,0,0,0,0,0,0,4.4744,4.4755,4.4876,4.4843,4.4843,4.4832,4.4839,4.4895,4.4909,4.4869,4.4866,4.4875,4.4923,4.4943,4.4949,4.5036,4.4961,4.4966,4.4969,4.4971,4.5192,4.5195,0,0,0,0,0,0,4.474,4.4752,4.4874,4.4878,4.4788,4.4837,4.4845,4.4876,4.4909,4.4911,4.4877,4.4873,4.4936,4.4943,4.4951,4.5051,4.4967,4.4971,4.4974,4.5189,4.5193,4.5196,0,0,0,0,0,0,4.4737,4.4752,4.4871,4.4814,4.4829,4.4843,4.4878,4.4879,4.4899,4.4916,4.4917,4.4896,4.4934,4.4944,4.5011,4.5053,4.4973,4.4978,4.5186,4.519,4.5194,4.5252,0,0,0,0,0,0,4.4732,4.4751,4.4785,4.4815,4.4832,4.4932,4.4881,4.4882,4.4909,4.4904,4.4933,4.4935,4.4933,4.5004,4.5016,4.5058,4.4982,4.5182,4.5188,4.5193,4.5246,4.5258,4.5268,0,0,0,0,0,4.4727,4.4797,4.4787,4.4801,4.4875,4.4935,4.4944,4.4942,4.4912,4.4945,4.4955,4.4934,4.5046,4.5011,4.5024,4.5068,4.5179,4.5186,4.5193,4.5242,4.5256,4.5267,0,0,0,0,0,0,4.4767,4.48,4.479,4.4872,4.4902,4.4929,4.4971,4.4957,4.4993,4.4987,4.498,4.4987,4.5057,4.5069,4.5029,4.5151,4.5108,4.5117,4.5141,4.5154,4.5164,4.516,4.4986,0,0,0,0,0,4.4787,4.4835,4.486,4.4931,4.4946,4.4956,4.4982,4.4978,4.5007,4.5018,4.5033,4.506,4.5101,4.5128,4.5167,4.5248,4.5253,4.5285,4.5295,4.5304,4.5312,4.5355,4.537,4.5218,4.5218,4.5217,0,0,4.4826,4.485,4.488,4.494,4.4962,4.501,4.4966,4.5019,4.5054,4.5025,4.509,4.5102,4.5131,4.5206,4.5239,4.5218,4.5355,4.5312,4.5319,4.5323,4.5364,4.5378,4.5391,4.5222,4.5221,4.5221,0,0,4.4922,4.4945,4.5007,4.503,4.5065,4.5071,4.5086,4.5116,4.5124,4.5189,4.5169,4.5208,4.528,4.5301,4.5321,4.5425,4.5407,4.5438,4.5493,4.5535,4.5547,4.5558,4.5594,4.5608,4.5446,4.5446,4.5446,0,4.4965,4.504,4.5039,4.5094,4.512,4.5099,4.516,4.5181,4.5226,4.5243,4.5219,4.5308,4.5326,4.5405,4.5431,4.5448,4.5463,4.5434,4.5546,4.5556,4.5566,4.5601,4.5615,4.545,4.5449,4.5449,4.5448,0,4.5091,4.5143,4.5187,4.5234,4.5265,4.5322,4.5328,4.5359,4.5352,4.536,4.5426,4.5447,4.5489,4.5508,4.5501,4.5586,4.5571,4.5547,4.5503,4.5584,4.5617,4.563,4.5455,4.5453,4.5452,4.5451,0,0,4.5215,4.5261,4.5278,4.5299,4.5336,4.5374,4.5429,4.5474,4.55,4.5531,4.5576,4.5637,4.5614,4.5637,4.5632,4.5669,4.575,4.564,4.5641,4.566,4.5844,4.5862,4.5878,4.5738,4.574,4.5742,4.5841,0,4.5313,4.5414,4.5415,4.5506,4.5553,4.5533,4.5581,4.5607,4.5616,4.5655,4.5663,4.5706,4.5674,4.5687,4.5723,4.5733,4.5787,4.5725,4.5778,4.578,4.5772,4.5895,4.5914,4.6007,4.5854,4.5856,4.5858,0,4.5442,4.548,4.5577,4.5607,4.5627,4.5671,4.5711,4.5749,4.5777,4.5781,4.5807,4.5796,4.585,4.5805,4.5878,4.5837,4.5858,4.5865,4.5869,4.5873,4.5824,4.5902,4.6036,4.605,4.5878,4.5876,4.5875,0,4.5522,4.5598,4.5665,4.5684,4.5721,4.5752,4.5768,4.5794,4.5821,4.5855,4.5871,4.591,4.5932,4.5961,4.596,4.5928,4.6034,4.5989,4.6036,4.6037,4.606,4.6058,4.6198,4.6074,4.6073,4.6073,4.6073,0,4.5632,4.5692,4.5702,4.5744,4.581,4.5809,4.5873,4.5886,4.5909,4.5951,4.5935,4.5974,4.5971,4.601,4.6009,4.6069,4.6078,4.6081,4.608,4.6083,4.6083,4.6097,4.609,4.6077,4.6076,4.6075,4.6075,0,4.5733,4.5743,4.5815,4.5845,4.5854,4.5901,4.5925,4.5963,4.597,4.6023,4.6035,4.6046,4.6091,4.6093,4.6144,4.6143,4.6216,4.6208,4.6208,4.6206,4.6254,4.6249,4.6408,4.6428,4.629,4.6291,4.6292,0,4.5803,4.5849,4.5884,4.5913,4.5932,4.5977,4.6005,4.6005,4.6033,4.607,4.6103,4.6147,4.6182,4.6254,4.6264,4.6303,4.6295,4.6348,4.6301,4.6302,4.6296,4.6293,4.6297,4.6357,4.6359,4.636,4.6361,0,4.5925,4.5928,4.597,4.6014,4.6048,4.6081,4.6112,4.6136,4.6139,4.6172,4.6219,4.6246,4.6299,4.6342,4.638,4.6393,4.6377,4.6376,4.6389,4.6392,4.639,4.6391,4.6233,4.6372,4.6371,4.637,4.637,4.6369,4.6013,4.6053,4.6084,4.6131,4.6155,4.6185,4.6223,4.6236,4.6276,4.6321,4.6317,4.6369,4.6395,4.6444,4.6461,4.65,4.6481,4.65,4.6505,4.6509,4.6515,4.6384,4.6506,4.6506,4.6506,4.6505,4.6505,0,4.6134,4.6154,4.6197,4.6243,4.6279,4.6264,4.6297,4.6328,4.6375,4.6402,4.6437,4.6491,4.6532,4.6546,4.6586,4.6614,4.6608,4.6625,4.6623,4.6626,4.6529,4.6514,4.6629,4.6629,4.6629,4.6629,4.6629,4.6629,4.6202,4.6269,4.6275,4.6353,4.6371,4.6424,4.6445,4.6471,4.6493,4.6554,4.659,4.6599,4.6621,4.6662,4.6699,4.6701,4.6716,4.6736,4.6736,4.6645,4.6633,4.6621,4.6607,4.674,4.674,4.683,4.6831,4.6831]}]]